Regional Weather Roundup
Issued by NWS Charleston, SC

Current Version | Previous Version | Graphics & Text | Print | Product List | Glossary On
Versions: 1 2 3 4 5 6 7 8 9 10 11 12 13 14 15 16 17 18 19 20 21 22 23 24 25 26 27 28 29 30 31 32 33 34 35 36 37 38 39 40 41 42 43 44 45 46 47 48 49 50
000 ASUS42 KCHS 272127 RWRCHS REGIONAL WEATHER ROUNDUP NATIONAL WEATHER SERVICE CHARLESTON SC 400 PM EST MON FEB 27 2017 NOTE: "FAIR" INDICATES FEW OR NO CLOUDS BELOW 12,000 FEET WITH NO SIGNIFICANT WEATHER AND/OR OBSTRUCTIONS TO VISIBILITY. NOT ALL STATIONS ARE QUALITY CONTROLLED. USE DATA WITH CAUTION... ESPECIALLY DEWPOINT OBSERVATIONS. SCZ027-030-031-034>040-042>050-272200- ...SOUTHEAST SOUTH CAROLINA... CITY SKY/WX TMP DP RH WIND PRES REMARKS N CHARLESTON MOSUNNY 72 53 51 S12 30.31S WATERFRONT PRK N/A 70 59 68 E6 30.29F MOUNT PLEASANT FAIR 70 57 64 CALM 30.32S JOHNS ISLAND MOCLDY 70 59 68 E6 30.32R PINOPOLIS N/A 73 50 43 S7 30.23F MONCKS CORNER FAIR 70 48 46 SE8 30.31S SUMMERVILLE FAIR 72 46 40 S5 30.31S BEAUFORT MCAS CLOUDY 72 58 61 E9 30.29S BEAUFORT ARPT CLOUDY 70 55 60 E7 30.29S HILTON HEAD IS PTSUNNY 68 57 68 NE7 30.30S WALTERBORO CLEAR 72 52 49 SE8 30.31S ALLENDALE MOCLDY 73 50 43 SE8 30.28S ...SOUTHERN MIDLANDS AND PEE DEE... CITY SKY/WX TMP DP RH WIND PRES REMARKS GEORGETOWN MOCLDY 68 52 56 E9 30.35S KINGSTREE MOCLDY 68 48 49 E6 30.32S ORANGEBURG MOSUNNY 71 46 40 SE6 30.30F BARNWELL FAIR 73 50 43 E8 30.29S AIKEN FAIR 66 45 45 CALM 30.34S MANNING FAIR N/A N/A N/A MISG 30.31S COLUMBIA MOSUNNY 70 42 36 VRB3 30.31S SUMTER SUNNY 71 40 32 SE6 30.30F FLORENCE MOSUNNY 69 46 43 E5 30.33F MYRTLE BEACH PTSUNNY 64 52 63 E12 30.37S N MYRTLE BEACH SUNNY 66 51 58 E8 30.36S $$ GAZ063-065-086>088-099>101-113>116-118-119-134>141-150-272200- ...SOUTHEAST GEORGIA... CITY SKY/WX TMP DP RH WIND PRES REMARKS SAVANNAH ARPT CLOUDY 72 55 55 SE13 30.27F HUNTER AAF PTSUNNY 71 61 71 SE7 30.25S FORT STEWART CLOUDY 72 58 59 E10G18 30.23S STATESBORO MOSUNNY 75 57 54 SE6 30.27R SYLVANIA CLOUDY N/A N/A N/A S3 30.28S CLAXTON MOCLDY 74 59 60 SE3 30.25S ...CSRA...CENTRAL AND FAR SOUTHEAST GEORGIA... CITY SKY/WX TMP DP RH WIND PRES REMARKS THOMSON PTSUNNY 70 53 54 CALM 30.33F AUGUSTA-BUSH PTSUNNY 72 49 44 E7 30.28F AUGUSTA-DANIEL MOSUNNY 71 45 39 VRB6 30.30S SWAINSBORO FAIR 73 54 49 SE5 30.26S VIDALIA CLOUDY 77 59 53 E5 30.24S EASTMAN CLOUDY 76 34 22 CALM 30.25S HAZLEHURST MOCLDY 77 54 44 CALM 30.21F ALMA PTSUNNY 77 56 48 S6 30.21S WAYCROSS PTSUNNY 80 62 53 CALM 30.20F JESUP FAIR 75 57 53 SE5 30.23F BAXLEY PTSUNNY 77 61 57 SE3 30.22S BRUNSWICK CLOUDY 73 64 73 SE9 30.24F SAINT SIMONS CLOUDY 70 61 73 E7 30.24F $$ SCZ027-028-034-036>038-045-046-048>050-GAZ119-141-272200- ...LAKE AND SUPPLEMENTAL COASTAL OBSERVATIONS... STATION/POSITION TIME TEMP WIND PRES WAVE SWELL AIR SEA DIR/SP/G HT/PER HT/PER/DIR (UTC) (F) (DEG/KT/KT) (MB) (FT/S) (FT/S/D) WINYAH BAY 2030 64 60/ 10 1027.0F LAKE MURRAY 2030 67 40/ 3/ 5 1026.1S ACE BASIN NERRS 2030 73 130/ 3 1026.0S FORT PULASKI 2100 65 63 80/ 9/ 12 1025.4 SAPELO ISLAND 2100 73 110/ 4 1024.0 $$ ANZ835-935-AMZ111-154-330-350-352-354-370-450-454-472-272200- ...C-MAN AND BUOY OBSERVATIONS... STATION/POSITION TIME TEMP WIND PRES WAVE SWELL AIR SEA DIR/SP/G HT/PER HT/PER/DIR (UTC) (F) (DEG/KT/KT) (MB) (FT/S) (FT/S/D) BUOY 41004 2050 69 69 130/ 10/ 12 1026.1R 4/ 8 3/120/ 8 BUOY 41008 2050 66 63 70/ 6/ 6 1024.4F 4/ 6 3/100/ 6 FOLLY BEACH CMAN 2100 64 50/ 11/ 13 1027.1F CAPERS NEARSHORE 2008 63 62 60/ 10/ 14 1026.8F FRIPP NEARSHORE 2108 63 62 50/ 10/ 14 1025.6F STATION/POSITION TIME TEMP WIND PRES WAVE SWELL AIR SEA DIR/SP/G HT/PER HT/PER/DIR (UTC) (F) (DEG/KT/KT) (MB) (FT/S) (FT/S/D) 5E ST. MARYS GA 2100 66 N/A 4/ 6 FRYING PAN BUOY 2110 68 69 140/ 12/ 17 1027.5 BUOY 41025 2050 65 71 140/ 14/ 17 1029.3F 3/ 8 3/120/ 8 CAPE LOOKOUT NC 2100 60 30/ 9/ 11 1028.3F BUOY 41002 2050 68 70 110/ 14/ 16 1027.6F 4/ 8 3/ 30/ 8 BUOY 41010 NOT AVBL ST AUGUSTINE FL 2100 69 69 130/ 10/ 11 1023.7F $$

USA.gov is the U.S. government's official web portal to all federal, state and local government web resources and services.